sat.trackr.live / text

‹ back to catalog

CHAMRAN-1

NORAD 61072 · 2024-165B

PAYLOAD ACTIVE UNKNOWN

§ Identity

Operator
Country
IRAN
Launch date
2024-09-14
Launch site
SMTS
Launch vehicle
Mass (kg)
RCS (m²)

External: N2YO · Heavens-Above · Gunter

§ Orbital elements

Epoch: 2026-09-20T21:08:11.887296Z

Period
95.26 min
Inclination
64.0742°
Eccentricity
0.0061035
Mean motion
15.11711115 rev/d
Perigee alt
488.8 km
Apogee alt
573.2 km
Semi-major
6,909.1 km
B*
1.2252e-4
RAAN
87.3074°
Arg perigee
301.7753°
Mean anomaly
57.7425°
Rev number
11,112

§ Raw data

CHAMRAN-11 61072U 24165B   26263.88069314  .00001979  00000+0  12252-3 0  99922 61072  64.0742  87.3074 0061035 301.7753  57.7425 15.11711115111121

JSON: /api/v1/satellites/61072 · /tle

For live sub-satellite position, see the globe view (requires WebGL).

§ Visibility from observer

Set your observer location to see the next 7 days of passes ≥ 10°. The values pass through the URL so the page stays shareable.

No JS? Fill the form by hand. The geolocation button needs JavaScript.

§ Radio — SatNOGS DB

ModeDescriptionDownlinkUplink
FSK Mode U - 38k4 2FSK 436.740 MHz

1 transmitter · refreshed weekly from db.satnogs.org